UAL1014 KIAH-MMUN

Flight info

Callsign UAL1014
Flight time 1h 49m
Altitude 37000
Route FLYZA5 KELPP A766 KEHLI UL209 BETAS DCT VOMAR VOMAR1A
Aircraft A320/M-SDE3FGHIRWY/LB1

Departure

Time 2026-05-01 10:08
Airport George Bush Intercontinental Airport (KIAH)

Arrival

Time 2026-05-01 11:58
Airport Cancún International Airport (MMUN)
Time Latitude Longitude Altitude Speed Heading
2026-05-01 09:37 29.98897 -95.34194 107 ft 0 kts 118°
2026-05-01 09:56 29.98902 -95.34206 181 ft 4 kts 108°
2026-05-01 09:57 29.98904 -95.34235 106 ft 4 kts 67°
2026-05-01 09:57 29.98889 -95.34257 106 ft 4 kts 21°
2026-05-01 09:57 29.98879 -95.34261 105 ft 0 kts 360°
2026-05-01 10:01 29.98893 -95.34261 107 ft 9 kts
2026-05-01 10:01 29.98963 -95.34258 106 ft 10 kts
2026-05-01 10:01 29.99034 -95.34260 107 ft 10 kts 360°
2026-05-01 10:02 29.99085 -95.34215 107 ft 10 kts 75°
2026-05-01 10:02 29.99087 -95.34111 107 ft 16 kts 89°
2026-05-01 10:02 29.99088 -95.33987 107 ft 15 kts 90°
2026-05-01 10:02 29.99088 -95.33868 107 ft 14 kts 90°
2026-05-01 10:03 29.99088 -95.33754 107 ft 14 kts 90°
2026-05-01 10:03 29.99089 -95.33646 107 ft 13 kts 89°
2026-05-01 10:03 29.99089 -95.33543 107 ft 12 kts 92°
2026-05-01 10:03 29.99088 -95.33448 107 ft 12 kts 89°
2026-05-01 10:04 29.99090 -95.33357 107 ft 11 kts 89°
2026-05-01 10:04 29.99090 -95.33266 107 ft 12 kts 90°
2026-05-01 10:04 29.99090 -95.33156 107 ft 17 kts 90°
2026-05-01 10:04 29.99091 -95.33020 107 ft 17 kts 90°
2026-05-01 10:05 29.99090 -95.32890 107 ft 16 kts 91°
2026-05-01 10:05 29.99089 -95.32766 105 ft 15 kts 90°
2026-05-01 10:05 29.99088 -95.32647 107 ft 15 kts 90°
2026-05-01 10:05 29.99113 -95.32544 107 ft 13 kts 35°
2026-05-01 10:06 29.99202 -95.32538 107 ft 13 kts 358°
2026-05-01 10:06 29.99294 -95.32538 106 ft 14 kts
2026-05-01 10:06 29.99351 -95.32584 106 ft 10 kts 258°
2026-05-01 10:06 29.99345 -95.32639 106 ft 0 kts 269°
2026-05-01 10:07 29.99345 -95.32641 106 ft 5 kts 270°
2026-05-01 10:07 29.99346 -95.32980 108 ft 77 kts 270°
2026-05-01 10:07 29.99344 -95.33819 106 ft 130 kts 270°
2026-05-01 10:07 29.99339 -95.34960 530 ft 140 kts 276°
2026-05-01 10:08 29.99287 -95.37278 1245 ft 166 kts 271°
2026-05-01 10:08 29.99251 -95.38665 1680 ft 176 kts 272°
2026-05-01 10:08 29.99215 -95.40167 1997 ft 199 kts 271°
2026-05-01 10:09 29.99175 -95.41858 2341 ft 223 kts 270°
2026-05-01 10:09 29.99121 -95.43746 2701 ft 248 kts 264°
2026-05-01 10:09 29.98605 -95.45687 3158 ft 269 kts 234°
2026-05-01 10:09 29.97231 -95.47139 3881 ft 271 kts 201°
2026-05-01 10:10 29.95436 -95.47596 4894 ft 264 kts 173°
2026-05-01 10:10 29.93714 -95.46986 5834 ft 262 kts 146°
2026-05-01 10:10 29.91749 -95.43425 7196 ft 275 kts 112°
2026-05-01 10:11 29.91109 -95.41335 8093 ft 279 kts 112°
2026-05-01 10:11 29.90462 -95.39201 8902 ft 285 kts 112°
2026-05-01 10:11 29.89793 -95.37019 9692 ft 292 kts 112°
2026-05-01 10:11 29.89100 -95.34792 10288 ft 304 kts 113°
2026-05-01 10:12 29.88353 -95.32417 10509 ft 327 kts 113°
2026-05-01 10:12 29.87819 -95.30727 10793 ft 336 kts 113°
2026-05-01 10:12 29.85920 -95.24692 12247 ft 352 kts 113°
2026-05-01 10:13 29.85062 -95.22036 12906 ft 356 kts 115°
2026-05-01 10:13 29.84171 -95.19351 13565 ft 363 kts 113°
2026-05-01 10:13 29.83510 -95.16488 14010 ft 379 kts 103°
2026-05-01 10:14 29.81790 -95.10921 15246 ft 367 kts 139°
2026-05-01 10:14 29.79773 -95.09237 15826 ft 356 kts 160°
2026-05-01 10:14 29.77531 -95.08016 16448 ft 359 kts 161°
2026-05-01 10:14 29.75216 -95.06984 17067 ft 356 kts 171°
2026-05-01 10:15 29.72820 -95.06266 17678 ft 357 kts 173°
2026-05-01 10:15 29.70416 -95.05436 18300 ft 365 kts 168°
2026-05-01 10:15 29.68023 -95.04399 18855 ft 370 kts 166°
2026-05-01 10:15 29.65618 -95.03286 19402 ft 375 kts 166°
2026-05-01 10:16 29.63186 -95.02161 19945 ft 378 kts 166°
2026-05-01 10:16 29.60726 -95.01050 20476 ft 382 kts 167°
2026-05-01 10:16 29.55708 -94.98876 21501 ft 389 kts 168°
2026-05-01 10:17 29.53150 -94.97802 22014 ft 393 kts 168°
2026-05-01 10:17 29.47988 -94.95647 23012 ft 401 kts 168°
2026-05-01 10:17 29.45352 -94.94545 23531 ft 405 kts 169°
2026-05-01 10:18 29.40030 -94.92305 24465 ft 409 kts 169°
2026-05-01 10:18 29.37349 -94.91173 24896 ft 413 kts 168°
2026-05-01 10:18 29.34644 -94.90031 25311 ft 416 kts 168°
2026-05-01 10:19 29.31915 -94.88881 25723 ft 420 kts 168°
2026-05-01 10:19 29.29200 -94.87548 26115 ft 432 kts 160°
2026-05-01 10:19 29.26647 -94.85627 26497 ft 447 kts 148°
2026-05-01 10:20 29.22375 -94.80212 27250 ft 467 kts 134°
2026-05-01 10:20 29.20356 -94.77290 27621 ft 470 kts 135°
2026-05-01 10:20 29.18316 -94.74351 27988 ft 473 kts 135°
2026-05-01 10:20 29.16263 -94.71401 28321 ft 476 kts 135°
2026-05-01 10:21 29.14188 -94.68425 28581 ft 481 kts 135°
2026-05-01 10:21 29.09979 -94.62389 29244 ft 489 kts 135°
2026-05-01 10:21 29.07856 -94.59346 29591 ft 492 kts 134°
2026-05-01 10:22 29.03570 -94.53193 30323 ft 495 kts 134°
2026-05-01 10:22 28.99266 -94.47030 31008 ft 498 kts 134°
2026-05-01 10:23 28.97093 -94.43927 31329 ft 500 kts 134°
2026-05-01 10:23 28.92757 -94.37744 32213 ft 498 kts 134°
2026-05-01 10:23 28.90599 -94.34665 32673 ft 496 kts 134°
2026-05-01 10:24 28.86318 -94.28556 33502 ft 496 kts 135°
2026-05-01 10:24 28.82004 -94.22422 34272 ft 496 kts 135°
2026-05-01 10:25 28.77691 -94.16290 34972 ft 495 kts 135°
2026-05-01 10:25 28.73376 -94.10172 35624 ft 495 kts 135°
2026-05-01 10:26 28.71214 -94.07116 35925 ft 496 kts 135°
2026-05-01 10:26 28.69047 -94.04052 36221 ft 496 kts 135°
2026-05-01 10:26 28.64716 -93.97924 36775 ft 498 kts 136°
2026-05-01 10:27 28.60370 -93.91785 36825 ft 497 kts 135°
2026-05-01 10:28 28.54557 -93.83594 36860 ft 498 kts 135°
2026-05-01 10:28 28.48036 -93.74415 36859 ft 496 kts 135°
2026-05-01 10:29 28.41517 -93.65284 36864 ft 496 kts 135°
2026-05-01 10:30 28.32817 -93.53105 36867 ft 497 kts 135°
2026-05-01 10:31 28.24125 -93.40977 36854 ft 497 kts 135°
2026-05-01 10:32 28.17586 -93.31844 36867 ft 497 kts 135°
2026-05-01 10:33 28.08840 -93.19698 36868 ft 497 kts 135°
2026-05-01 10:34 28.02271 -93.10612 36835 ft 497 kts 135°
2026-05-01 10:34 27.97893 -93.04557 36854 ft 497 kts 135°
2026-05-01 10:35 27.91340 -92.95489 36873 ft 496 kts 135°
2026-05-01 10:35 27.86976 -92.89468 36873 ft 495 kts 135°
2026-05-01 10:36 27.80422 -92.80455 36871 ft 495 kts 135°
2026-05-01 10:37 27.76051 -92.74457 36875 ft 494 kts 135°
2026-05-01 10:37 27.69497 -92.65476 36871 ft 494 kts 135°
2026-05-01 10:38 27.65127 -92.59499 36879 ft 494 kts 135°
2026-05-01 10:38 27.60749 -92.53520 36879 ft 494 kts 135°
2026-05-01 10:39 27.56377 -92.47558 36878 ft 494 kts 135°
2026-05-01 10:39 27.52029 -92.41636 36881 ft 494 kts 135°
2026-05-01 10:40 27.47655 -92.35681 36887 ft 494 kts 135°
2026-05-01 10:40 27.43278 -92.29726 36861 ft 493 kts 135°
2026-05-01 10:41 27.38897 -92.23784 36880 ft 493 kts 135°
2026-05-01 10:42 27.32326 -92.14883 36887 ft 493 kts 135°
2026-05-01 10:42 27.27912 -92.08902 36893 ft 493 kts 135°
2026-05-01 10:43 27.23530 -92.02972 36898 ft 493 kts 135°
2026-05-01 10:43 27.19129 -91.97057 36903 ft 492 kts 137°
2026-05-01 10:44 27.14050 -91.92099 36868 ft 480 kts 150°
2026-05-01 10:44 27.08620 -91.87737 36884 ft 480 kts 150°
2026-05-01 10:45 27.03227 -91.83393 36884 ft 480 kts 150°
2026-05-01 10:45 26.97801 -91.79018 36887 ft 480 kts 150°
2026-05-01 10:46 26.92373 -91.74656 36887 ft 480 kts 150°
2026-05-01 10:46 26.86937 -91.70305 36889 ft 480 kts 150°
2026-05-01 10:47 26.81503 -91.65955 36887 ft 480 kts 150°
2026-05-01 10:47 26.76069 -91.61604 36900 ft 480 kts 150°
2026-05-01 10:48 26.70644 -91.57262 36902 ft 480 kts 150°
2026-05-01 10:48 26.65214 -91.52931 36903 ft 479 kts 150°
2026-05-01 10:49 26.59790 -91.48599 36907 ft 479 kts 150°
2026-05-01 10:49 26.54365 -91.44272 36888 ft 479 kts 150°
2026-05-01 10:50 26.48941 -91.39961 36909 ft 478 kts 150°
2026-05-01 10:50 26.43533 -91.35664 36907 ft 478 kts 150°
2026-05-01 10:51 26.38109 -91.31364 36907 ft 477 kts 150°
2026-05-01 10:51 26.32715 -91.27092 36907 ft 477 kts 150°
2026-05-01 10:52 26.27305 -91.22805 36906 ft 477 kts 150°
2026-05-01 10:52 26.21896 -91.18527 36891 ft 477 kts 149°
2026-05-01 10:53 26.16486 -91.14261 36903 ft 476 kts 149°
2026-05-01 10:53 26.11074 -91.09988 36900 ft 477 kts 149°
2026-05-01 10:54 26.05668 -91.05722 36905 ft 476 kts 149°
2026-05-01 10:54 26.00256 -91.01468 36902 ft 476 kts 149°
2026-05-01 10:55 25.94841 -90.97220 36902 ft 476 kts 149°
2026-05-01 10:55 25.89470 -90.92997 36893 ft 476 kts 149°
2026-05-01 10:56 25.84030 -90.88714 36895 ft 476 kts 149°
2026-05-01 10:56 25.78657 -90.84505 36898 ft 476 kts 149°
2026-05-01 10:57 25.73244 -90.80278 36898 ft 476 kts 149°
2026-05-01 10:57 25.67827 -90.76052 36906 ft 476 kts 149°
2026-05-01 10:58 25.62417 -90.71824 36880 ft 476 kts 149°
2026-05-01 10:58 25.57004 -90.67598 36886 ft 476 kts 149°
2026-05-01 10:59 25.51588 -90.63383 36888 ft 476 kts 149°
2026-05-01 10:59 25.46173 -90.59170 36892 ft 476 kts 149°
2026-05-01 11:00 25.40756 -90.54956 36893 ft 476 kts 149°
2026-05-01 11:00 25.35339 -90.50750 36890 ft 476 kts 149°
2026-05-01 11:01 25.29911 -90.46537 36874 ft 477 kts 149°
2026-05-01 11:01 25.24480 -90.42328 36888 ft 477 kts 149°
2026-05-01 11:02 25.19038 -90.38125 36897 ft 477 kts 149°
2026-05-01 11:02 25.13590 -90.33921 36891 ft 478 kts 149°
2026-05-01 11:03 25.08183 -90.29733 36896 ft 478 kts 149°
2026-05-01 11:03 25.02733 -90.25519 36899 ft 479 kts 149°
2026-05-01 11:04 24.97272 -90.21310 36882 ft 479 kts 149°
2026-05-01 11:04 24.91806 -90.17108 36881 ft 479 kts 149°
2026-05-01 11:05 24.86333 -90.12912 36894 ft 480 kts 149°
2026-05-01 11:05 24.80853 -90.08714 36903 ft 480 kts 149°
2026-05-01 11:06 24.75377 -90.04510 36906 ft 480 kts 149°
2026-05-01 11:06 24.69902 -90.00291 36908 ft 480 kts 149°
2026-05-01 11:07 24.61676 -89.94001 36909 ft 480 kts 149°
2026-05-01 11:07 24.56188 -89.89817 36909 ft 480 kts 149°
2026-05-01 11:08 24.50561 -89.85917 36906 ft 474 kts 160°
2026-05-01 11:08 24.44344 -89.83889 36903 ft 461 kts 178°
2026-05-01 11:09 24.41165 -89.83638 36907 ft 457 kts 183°
2026-05-01 11:09 24.34812 -89.83330 36887 ft 457 kts 183°
2026-05-01 11:10 24.25227 -89.82826 36900 ft 458 kts 182°
2026-05-01 11:10 24.18865 -89.82489 36904 ft 458 kts 182°
2026-05-01 11:11 24.13572 -89.82221 36909 ft 458 kts 182°
2026-05-01 11:11 24.07202 -89.81896 36910 ft 458 kts 182°
2026-05-01 11:12 24.00827 -89.81570 36892 ft 458 kts 182°
2026-05-01 11:12 23.94455 -89.81238 36903 ft 459 kts 182°
2026-05-01 11:13 23.88081 -89.80904 36911 ft 459 kts 182°
2026-05-01 11:13 23.81707 -89.80578 36912 ft 459 kts 182°
2026-05-01 11:14 23.75333 -89.80251 36913 ft 459 kts 182°
2026-05-01 11:14 23.68954 -89.79923 36906 ft 458 kts 182°
2026-05-01 11:15 23.62587 -89.79586 36907 ft 458 kts 182°
2026-05-01 11:15 23.56212 -89.79246 36909 ft 458 kts 182°
2026-05-01 11:16 23.49843 -89.78907 36908 ft 458 kts 182°
2026-05-01 11:16 23.43469 -89.78572 36908 ft 458 kts 182°
2026-05-01 11:17 23.37104 -89.78239 36896 ft 458 kts 182°
2026-05-01 11:17 23.30742 -89.77908 36903 ft 458 kts 181°
2026-05-01 11:18 23.24386 -89.77565 36907 ft 457 kts 181°
2026-05-01 11:18 23.18069 -89.77234 36907 ft 457 kts 181°
2026-05-01 11:19 23.11717 -89.76899 36904 ft 457 kts 181°
2026-05-01 11:19 23.05366 -89.76570 36897 ft 457 kts 181°
2026-05-01 11:20 22.99024 -89.76234 36900 ft 456 kts 181°
2026-05-01 11:20 22.92682 -89.75900 36903 ft 456 kts 181°
2026-05-01 11:21 22.86342 -89.75575 36903 ft 456 kts 181°
2026-05-01 11:21 22.80002 -89.75243 36903 ft 456 kts 181°
2026-05-01 11:22 22.73697 -89.74424 36897 ft 463 kts 165°
2026-05-01 11:22 22.70739 -89.73008 36890 ft 469 kts 151°
2026-05-01 11:22 22.68139 -89.70863 36886 ft 473 kts 136°
2026-05-01 11:23 22.66054 -89.68112 36884 ft 475 kts 122°
2026-05-01 11:23 22.64608 -89.64909 36881 ft 475 kts 108°
2026-05-01 11:23 22.62598 -89.58096 36873 ft 476 kts 107°
2026-05-01 11:24 22.60591 -89.51265 36877 ft 477 kts 107°
2026-05-01 11:25 22.57556 -89.40998 36888 ft 478 kts 107°
2026-05-01 11:25 22.54512 -89.30719 36899 ft 478 kts 107°
2026-05-01 11:26 22.51472 -89.20436 36910 ft 479 kts 107°
2026-05-01 11:27 22.49436 -89.13586 36911 ft 479 kts 107°
2026-05-01 11:27 22.47407 -89.06784 36913 ft 479 kts 107°
2026-05-01 11:28 22.45361 -88.99934 36897 ft 479 kts 107°
2026-05-01 11:28 22.43319 -88.93096 36912 ft 478 kts 107°
2026-05-01 11:29 22.40246 -88.82856 36688 ft 478 kts 107°
2026-05-01 11:29 22.38184 -88.75987 35487 ft 478 kts 108°
2026-05-01 11:30 22.37160 -88.72575 34982 ft 476 kts 108°
2026-05-01 11:30 22.36141 -88.69178 34464 ft 475 kts 108°
2026-05-01 11:30 22.35125 -88.65792 33938 ft 473 kts 108°
2026-05-01 11:30 22.34110 -88.62416 33356 ft 471 kts 108°
2026-05-01 11:31 22.33100 -88.59059 32833 ft 468 kts 108°
2026-05-01 11:31 22.32095 -88.55727 32310 ft 465 kts 108°
2026-05-01 11:31 22.31102 -88.52451 31789 ft 451 kts 108°
2026-05-01 11:31 22.30142 -88.49284 31307 ft 438 kts 108°
2026-05-01 11:32 22.29206 -88.46201 30839 ft 427 kts 108°
2026-05-01 11:32 22.28290 -88.43183 30391 ft 422 kts 108°
2026-05-01 11:32 22.27377 -88.40167 29926 ft 423 kts 108°
2026-05-01 11:32 22.26460 -88.37145 29448 ft 423 kts 108°
2026-05-01 11:33 22.25546 -88.34128 29006 ft 422 kts 108°
2026-05-01 11:33 22.24634 -88.31116 28594 ft 421 kts 108°
2026-05-01 11:33 22.23725 -88.28115 28175 ft 420 kts 108°
2026-05-01 11:33 22.22818 -88.25121 27755 ft 419 kts 108°
2026-05-01 11:34 22.21921 -88.22170 27321 ft 419 kts 108°
2026-05-01 11:34 22.21000 -88.19148 26873 ft 418 kts 108°
2026-05-01 11:34 22.20088 -88.16164 26431 ft 418 kts 108°
2026-05-01 11:34 22.19188 -88.13226 25985 ft 418 kts 108°
2026-05-01 11:35 22.18275 -88.10241 25513 ft 419 kts 108°
2026-05-01 11:35 22.17364 -88.07259 25039 ft 419 kts 108°
2026-05-01 11:35 22.16453 -88.04272 24541 ft 420 kts 108°
2026-05-01 11:35 22.15541 -88.01280 24170 ft 418 kts 108°
2026-05-01 11:36 22.14632 -87.98300 23644 ft 420 kts 108°
2026-05-01 11:36 22.13491 -87.95445 23362 ft 413 kts 120°
2026-05-01 11:36 22.11806 -87.92974 23074 ft 405 kts 134°
2026-05-01 11:36 22.09781 -87.90935 22913 ft 393 kts 138°
2026-05-01 11:37 22.07780 -87.88970 22586 ft 387 kts 138°
2026-05-01 11:37 22.05808 -87.87019 22204 ft 383 kts 138°
2026-05-01 11:37 22.03857 -87.85081 21805 ft 380 kts 137°
2026-05-01 11:37 22.01924 -87.83162 21407 ft 377 kts 137°
2026-05-01 11:38 22.00005 -87.81257 20982 ft 375 kts 137°
2026-05-01 11:38 21.98089 -87.79361 20595 ft 372 kts 137°
2026-05-01 11:38 21.96203 -87.77497 20050 ft 364 kts 137°
2026-05-01 11:38 21.94336 -87.75657 19305 ft 362 kts 137°
2026-05-01 11:39 21.92483 -87.73831 18603 ft 360 kts 137°
2026-05-01 11:39 21.90646 -87.72017 17897 ft 357 kts 136°
2026-05-01 11:39 21.88831 -87.70223 17207 ft 351 kts 137°
2026-05-01 11:39 21.87050 -87.68467 16562 ft 344 kts 136°
2026-05-01 11:40 21.85296 -87.66740 15883 ft 339 kts 136°
2026-05-01 11:40 21.83567 -87.65042 15238 ft 334 kts 136°
2026-05-01 11:40 21.81859 -87.63364 14587 ft 331 kts 136°
2026-05-01 11:40 21.80176 -87.61710 14033 ft 325 kts 135°
2026-05-01 11:41 21.78522 -87.60084 13611 ft 320 kts 135°
2026-05-01 11:41 21.76893 -87.58480 13175 ft 315 kts 136°
2026-05-01 11:41 21.75288 -87.56900 12755 ft 313 kts 136°
2026-05-01 11:41 21.73687 -87.55324 12387 ft 311 kts 136°
2026-05-01 11:42 21.72095 -87.53761 11971 ft 310 kts 136°
2026-05-01 11:42 21.70515 -87.52211 11699 ft 305 kts 136°
2026-05-01 11:42 21.68952 -87.50680 11345 ft 303 kts 136°
2026-05-01 11:42 21.67399 -87.49157 11008 ft 301 kts 136°
2026-05-01 11:43 21.65860 -87.47648 10697 ft 298 kts 136°
2026-05-01 11:43 21.64336 -87.46151 10368 ft 296 kts 137°
2026-05-01 11:43 21.62783 -87.44717 10050 ft 293 kts 139°
2026-05-01 11:44 21.59642 -87.42031 8957 ft 285 kts 141°
2026-05-01 11:44 21.58086 -87.40724 8310 ft 282 kts 141°
2026-05-01 11:44 21.56579 -87.39455 7874 ft 277 kts 141°
2026-05-01 11:44 21.55074 -87.38181 7494 ft 275 kts 141°
2026-05-01 11:45 21.53579 -87.36908 7122 ft 273 kts 141°
2026-05-01 11:45 21.52082 -87.35632 6748 ft 275 kts 142°
2026-05-01 11:45 21.50584 -87.34354 6418 ft 274 kts 142°
2026-05-01 11:45 21.49096 -87.33081 6055 ft 274 kts 142°
2026-05-01 11:46 21.47619 -87.31816 5736 ft 271 kts 142°
2026-05-01 11:46 21.46142 -87.30551 5420 ft 269 kts 142°
2026-05-01 11:46 21.44690 -87.29308 5107 ft 267 kts 142°
2026-05-01 11:46 21.43243 -87.28071 4793 ft 265 kts 142°
2026-05-01 11:47 21.41822 -87.26859 4485 ft 254 kts 142°
2026-05-01 11:47 21.40496 -87.25727 4341 ft 234 kts 142°
2026-05-01 11:47 21.39252 -87.24663 4029 ft 223 kts 142°
2026-05-01 11:47 21.38039 -87.23656 3984 ft 221 kts 148°
2026-05-01 11:48 21.36677 -87.22883 3993 ft 223 kts 153°
2026-05-01 11:48 21.35292 -87.22135 3989 ft 222 kts 153°
2026-05-01 11:48 21.33912 -87.21389 3989 ft 222 kts 153°
2026-05-01 11:48 21.32537 -87.20645 3987 ft 221 kts 153°
2026-05-01 11:49 21.31163 -87.19902 3986 ft 222 kts 153°
2026-05-01 11:49 21.29780 -87.19163 3986 ft 222 kts 156°
2026-05-01 11:49 21.28315 -87.18581 3706 ft 227 kts 159°
2026-05-01 11:49 21.26849 -87.18018 3409 ft 221 kts 159°
2026-05-01 11:50 21.25416 -87.17468 3006 ft 216 kts 159°
2026-05-01 11:50 21.24006 -87.16927 2655 ft 215 kts 159°
2026-05-01 11:50 21.22605 -87.16387 2308 ft 214 kts 158°
2026-05-01 11:50 21.21315 -87.15619 2030 ft 210 kts 139°
2026-05-01 11:51 21.20354 -87.14450 1987 ft 211 kts 124°
2026-05-01 11:51 21.19529 -87.13112 1996 ft 230 kts 124°
2026-05-01 11:51 21.18634 -87.11677 1982 ft 226 kts 124°
2026-05-01 11:51 21.17794 -87.10331 1981 ft 209 kts 124°
2026-05-01 11:52 21.17017 -87.09084 1988 ft 193 kts 125°
2026-05-01 11:52 21.16298 -87.07930 1989 ft 187 kts 125°
2026-05-01 11:52 21.15593 -87.06801 1987 ft 178 kts 125°
2026-05-01 11:52 21.14915 -87.05716 1987 ft 174 kts 125°
2026-05-01 11:53 21.14245 -87.04643 1994 ft 173 kts 125°
2026-05-01 11:53 21.13577 -87.03577 1993 ft 172 kts 125°
2026-05-01 11:53 21.12910 -87.02510 1997 ft 172 kts 125°
2026-05-01 11:53 21.12244 -87.01445 1996 ft 172 kts 125°
2026-05-01 11:54 21.11579 -87.00379 1992 ft 172 kts 125°
2026-05-01 11:54 21.10915 -86.99317 1992 ft 172 kts 125°
2026-05-01 11:54 21.10267 -86.98278 1946 ft 159 kts 125°
2026-05-01 11:54 21.09684 -86.97343 1777 ft 145 kts 124°
2026-05-01 11:55 21.09149 -86.96487 1644 ft 132 kts 124°
2026-05-01 11:55 21.08640 -86.95673 1457 ft 130 kts 124°
2026-05-01 11:55 21.08140 -86.94872 1306 ft 129 kts 124°
2026-05-01 11:55 21.07642 -86.94076 1110 ft 127 kts 125°
2026-05-01 11:56 21.07148 -86.93286 942 ft 128 kts 125°
2026-05-01 11:56 21.06656 -86.92495 785 ft 128 kts 126°
2026-05-01 11:56 21.06158 -86.91697 581 ft 131 kts 125°
2026-05-01 11:56 21.05658 -86.90901 452 ft 129 kts 126°
2026-05-01 11:57 21.05158 -86.90107 310 ft 128 kts 126°
2026-05-01 11:57 21.04832 -86.89583 183 ft 128 kts 125°
2026-05-01 11:57 21.04188 -86.88555 39 ft 109 kts 123°
2026-05-01 11:57 21.03861 -86.88032 37 ft 60 kts 124°
2026-05-01 11:58 21.03705 -86.87781 39 ft 33 kts 122°
2026-05-01 11:58 21.03609 -86.87583 40 ft 24 kts 105°
2026-05-01 11:58 21.03596 -86.87410 42 ft 2 kts 89°
2026-05-01 11:59 21.03601 -86.87382 42 ft 5 kts 59°
2026-05-01 11:59 21.03619 -86.87361 42 ft 7 kts 49°
2026-05-01 11:59 21.03660 -86.87322 43 ft 9 kts 38°
2026-05-01 12:00 21.03778 -86.87449 41 ft 15 kts 297°
2026-05-01 12:00 21.03839 -86.87521 43 ft 10 kts 340°
2026-05-01 12:00 21.03922 -86.87541 43 ft 2 kts 338°
2026-05-01 12:01 21.03925 -86.87543 43 ft 0 kts 338°